WZZ5463 EGGW-EDLW

Flight info

Callsign WZZ5463
Flight time N/A
Altitude 33000
Route MATCH Q295 BRAIN M197 REDFA L620 TACHA DCT PAM L620 SONEB Z841 DOMEG
Aircraft A320/M-SDE3FGHIRWY/LB1

Departure

Time 2026-05-04 11:22
Airport London Luton Airport (EGGW)

Arrival

Time N/A
Airport Dortmund Airport (EDLW)
Time Latitude Longitude Altitude Speed Heading
2026-05-04 10:54 51.87941 -0.37380 509 ft 0 kts 161°
2026-05-04 10:59 51.87942 -0.37380 508 ft 0 kts 161°
2026-05-04 11:06 51.87942 -0.37381 508 ft 0 kts 161°
2026-05-04 11:12 51.87974 -0.37398 508 ft 2 kts 161°
2026-05-04 11:12 51.87994 -0.37403 508 ft 4 kts 211°
2026-05-04 11:12 51.88009 -0.37373 508 ft 4 kts 251°
2026-05-04 11:12 51.88017 -0.37334 508 ft 4 kts 252°
2026-05-04 11:13 51.88025 -0.37292 508 ft 4 kts 252°
2026-05-04 11:13 51.88034 -0.37251 508 ft 4 kts 252°
2026-05-04 11:13 51.88042 -0.37212 508 ft 4 kts 247°
2026-05-04 11:13 51.88056 -0.37177 508 ft 4 kts 212°
2026-05-04 11:14 51.88063 -0.37170 508 ft 4 kts 197°
2026-05-04 11:16 51.88089 -0.37170 509 ft 6 kts 161°
2026-05-04 11:16 51.88037 -0.37142 508 ft 9 kts 161°
2026-05-04 11:16 51.87970 -0.37106 509 ft 11 kts 161°
2026-05-04 11:17 51.87892 -0.37063 509 ft 13 kts 161°
2026-05-04 11:17 51.87816 -0.37023 514 ft 10 kts 162°
2026-05-04 11:19 51.87510 -0.37528 522 ft 13 kts 237°
2026-05-04 11:19 51.87482 -0.37669 523 ft 14 kts 256°
2026-05-04 11:19 51.87455 -0.37834 522 ft 17 kts 254°
2026-05-04 11:19 51.87417 -0.38005 524 ft 15 kts 233°
2026-05-04 11:20 51.87324 -0.38102 522 ft 14 kts 205°
2026-05-04 11:20 51.87248 -0.38112 524 ft 7 kts 153°
2026-05-04 11:20 51.87251 -0.38066 524 ft 0 kts 75°
2026-05-04 11:22 51.88677 -0.30026 2213 ft 211 kts 73°
2026-05-04 11:22 51.89107 -0.27595 2568 ft 237 kts 74°
2026-05-04 11:23 51.89555 -0.24893 3055 ft 258 kts 81°
2026-05-04 11:23 51.89346 -0.22003 3833 ft 266 kts 116°
2026-05-04 11:24 51.79503 -0.13794 4962 ft 270 kts 158°
2026-05-04 11:25 51.77772 -0.12621 4957 ft 270 kts 155°
2026-05-04 11:25 51.76294 -0.10836 4964 ft 270 kts 129°
2026-05-04 11:25 51.75455 -0.08144 4955 ft 270 kts 102°
2026-05-04 11:26 51.75675 -0.02203 4962 ft 271 kts 82°
2026-05-04 11:27 51.77431 0.18896 4962 ft 271 kts 82°
2026-05-04 11:28 51.77676 0.21909 4961 ft 271 kts 82°
2026-05-04 11:28 51.77922 0.24927 4957 ft 271 kts 82°
2026-05-04 11:28 51.78169 0.27973 5327 ft 277 kts 82°
2026-05-04 11:28 51.78418 0.31039 6328 ft 276 kts 82°
2026-05-04 11:29 51.78665 0.34127 7227 ft 279 kts 82°
2026-05-04 11:29 51.78913 0.37242 8067 ft 282 kts 83°
2026-05-04 11:29 51.79165 0.40406 8883 ft 285 kts 83°
2026-05-04 11:29 51.79419 0.43604 9678 ft 289 kts 83°
2026-05-04 11:31 51.81709 0.69087 13696 ft 348 kts 76°
2026-05-04 11:33 51.86306 0.96371 17856 ft 370 kts 73°
2026-05-04 11:33 51.87061 1.00375 18405 ft 373 kts 73°
2026-05-04 11:33 51.87810 1.04415 18950 ft 377 kts 73°
2026-05-04 11:34 51.88555 1.08494 19498 ft 380 kts 73°
2026-05-04 11:34 51.89297 1.12615 20040 ft 383 kts 73°
2026-05-04 11:34 51.90042 1.16768 20569 ft 386 kts 73°
2026-05-04 11:34 51.90792 1.20957 21046 ft 389 kts 73°
2026-05-04 11:35 51.91545 1.25174 21513 ft 391 kts 73°
2026-05-04 11:35 51.92305 1.29422 21965 ft 394 kts 73°
2026-05-04 11:35 51.93071 1.33702 22419 ft 397 kts 73°
2026-05-04 11:35 51.93836 1.38008 22868 ft 399 kts 74°
2026-05-04 11:36 51.94604 1.42351 23310 ft 402 kts 74°
2026-05-04 11:36 51.95377 1.46726 23743 ft 405 kts 74°
2026-05-04 11:36 51.96151 1.51124 24168 ft 407 kts 74°
2026-05-04 11:36 51.96930 1.55558 24576 ft 410 kts 74°
2026-05-04 11:37 51.97711 1.60018 24984 ft 412 kts 74°
2026-05-04 11:37 51.98495 1.64505 25382 ft 415 kts 74°
2026-05-04 11:37 51.99283 1.69022 25770 ft 417 kts 74°
2026-05-04 11:37 52.00042 1.73582 26150 ft 420 kts 75°
2026-05-04 11:38 52.00769 1.78183 26530 ft 422 kts 76°
2026-05-04 11:38 52.01480 1.82820 26895 ft 425 kts 76°
2026-05-04 11:38 52.02184 1.87491 27248 ft 427 kts 76°
2026-05-04 11:38 52.02890 1.92186 27594 ft 429 kts 76°
2026-05-04 11:39 52.03594 1.96842 27940 ft 431 kts 76°
2026-05-04 11:39 52.04318 2.01582 28284 ft 434 kts 76°
2026-05-04 11:40 52.08739 2.30571 30267 ft 447 kts 76°
2026-05-04 11:41 52.09481 2.35495 30572 ft 449 kts 76°
2026-05-04 11:41 52.10223 2.40445 30884 ft 451 kts 76°
2026-05-04 11:41 52.10958 2.45397 31305 ft 450 kts 76°
2026-05-04 11:41 52.11704 2.50336 31735 ft 449 kts 75°
2026-05-04 11:42 52.12543 2.55222 32157 ft 448 kts 73°
2026-05-04 11:42 52.13466 2.60059 32567 ft 447 kts 72°
2026-05-04 11:42 52.14433 2.64870 32912 ft 447 kts 71°
2026-05-04 11:43 52.16349 2.74418 33011 ft 439 kts 72°
2026-05-04 11:43 52.18164 2.83882 33010 ft 437 kts 73°
2026-05-04 11:44 52.19924 2.93351 33009 ft 436 kts 73°
2026-05-04 11:44 52.21672 3.02823 33010 ft 436 kts 73°
2026-05-04 11:45 52.23429 3.12293 33010 ft 436 kts 73°
2026-05-04 11:45 52.25176 3.21772 33008 ft 436 kts 75°
2026-05-04 11:46 52.25990 3.31559 33008 ft 436 kts 85°
2026-05-04 11:46 52.26469 3.41427 33008 ft 436 kts 85°
2026-05-04 11:47 52.26949 3.51297 33009 ft 436 kts 85°
2026-05-04 11:47 52.27427 3.61172 33010 ft 436 kts 85°
2026-05-04 11:48 52.27890 3.71053 33012 ft 436 kts 85°
2026-05-04 11:48 52.28339 3.80943 33015 ft 437 kts 86°
2026-05-04 11:49 52.28778 3.90837 33016 ft 437 kts 86°
2026-05-04 11:49 52.29151 3.99119 33016 ft 437 kts 85°
2026-05-04 11:50 52.29586 4.08946 33017 ft 437 kts 86°
2026-05-04 11:50 52.30012 4.18842 33019 ft 437 kts 86°
2026-05-04 11:51 52.30429 4.28810 33019 ft 437 kts 86°
2026-05-04 11:51 52.30831 4.38642 33019 ft 437 kts 86°
2026-05-04 11:52 52.31225 4.48536 33018 ft 436 kts 86°
2026-05-04 11:52 52.31608 4.58437 33018 ft 436 kts 86°
2026-05-04 11:53 52.31990 4.68333 33017 ft 436 kts 86°
2026-05-04 11:53 52.32370 4.78225 33015 ft 436 kts 86°